Regional Weather Roundup
Issued by NWS

Home | Current Version | Previous Version | Graphics & Text | Print | Product List | Glossary On
Versions: 1 2 3 4 5 6 7 8 9 10 11 12 13 14 15 16 17 18 19 20 21 22 23 24 25 26 27 28 29 30 31 32 33 34 35 36 37 38 39 40 41 42 43 44 45 46 47 48 49 50
000
ASUS43 KBIS 200602
RWRND

NORTH DAKOTA REGIONAL WEATHER ROUNDUP
NATIONAL WEATHER SERVICE BISMARCK ND
100 AM CDT SUN AUG 20 2017

NOTE: "FAIR" INDICATES FEW OR NO CLOUDS BELOW 12,000 FEET WITH NO
SIGNIFICANT WEATHER AND/OR OBSTRUCTIONS TO VISIBILITY.


NDZ001>003-009>011-017-200700-
NORTHWEST NORTH DAKOTA

CITY           SKY/WX    TMP DP  RH WIND       PRES   REMARKS
WILLISTON      PTCLDY    61  40  45 NE5       29.98R
6HR MIN TEMP:  61; 6HR MAX TEMP:  78;

MINOT          CLEAR     62  44  51 W14       29.91R
MINOT AFB      CLEAR     59  44  58 NW10      29.89R
$$

NDZ018>021-031>035-040>046-200700-
SOUTHWEST NORTH DAKOTA

CITY           SKY/WX    TMP DP  RH WIND       PRES   REMARKS
BISMARCK       CLEAR     69  48  47 N12G21    29.90R
6HR MIN TEMP:  69; 6HR MAX TEMP:  86;

DICKINSON      CLEAR     60  44  55 N10       29.95R
GARRISON         N/A     54  49  83 NW8       29.92R
6HR MIN TEMP:  54; 6HR MAX TEMP:  82;

HETTINGER ARPT PTCLDY    57  47  69 N6        29.98R
$$

NDZ004>008-012>016-024-026-027-054-200700-
NORTHEAST NORTH DAKOTA

CITY           SKY/WX    TMP DP  RH WIND       PRES   REMARKS
GRAND FORKS    CLOUDY    69  66  90 SW9       29.74R
GRND FRKS AFB  PTCLDY    68  63  85 W9        29.75R
DEVILS LAKE    CLEAR     67  55  65 NW14      29.83R
$$

NDZ022-023-025-028>030-036>039-047>053-200700-
SOUTHEAST NORTH DAKOTA

CITY           SKY/WX    TMP DP  RH WIND       PRES   REMARKS
FARGO          PTCLDY    69  65  86 S12       29.78R
6HR MIN TEMP:  69; 6HR MAX TEMP:  78;

JAMESTOWN      CLEAR     67  57  70 NW15      29.82R
$$





USA.gov is the U.S. government's official web portal to all federal, state and local government web resources and services.